Showing default

COSMOS 2583, 62904

Orbit data source: Space-Track

COSMOS 2583, 62904 is a payload satellite owned by MO RF (CIS) in LEO that was launched on Wed, 05 Feb 2025 UTC via a SOYUZ-2-1V launch vehicle from the Plesetsk Missile And Space Complex (PKMTR). Payload-class satellites include a variety of spacecraft equipped with specific instruments for various scientific and technological missions. These include communications satellites like Starlink; space stations such as the ISS; scientific satellites like the Hubble; Earth observation satellites from companies like Planet Labs, Umbra, and HawkEye 360; GPS; miniature CubeSats for education and research; and military/defense satellites.

Loading next visibility...
Identifier
62904, 2025-026C
Orbit
LEO
Last TLE update
19 hours ago
Origin
Manufacturer
VNIIEM
Mission
Operational Defense Imaging
Bus & Motor
EMKA, Unknown motor
Mass
~500 kg wet, 500 kg dry
Launch date (UTC)
2025-02-05 (5 months ago)
Launch vehicle
SOYUZ-2-1V
Launch site
Plesetsk Missile And Space Complex (PKMTR)
Object type
Payload
Rocket body
Debris
Shape & HBR
Cyl + 2 Pan, 3 m
Radar Cross Section
3.727 m², Medium (>0.1 m² and < 1m²)

Expand to show TLE details & history

TLE from 19 hours ago
0 COSMOS 2583
1 62904U 25026C   25174.91842959  .00001584  00000-0  14752-3 0  9992
2 62904  81.9960  79.6665 0011110 155.6497 204.5249 14.93664634 20695
Epoch: 2025-06-23T22:02Z
TLE epoch observation values (Epoch: 2025-06-23T22:02:32.316Z)
Latitude
-0.00006°
Longitude
-163.28997°
Altitude
596.6 km
Speed
7.558 km/s
True Right ascension
05h 18m 39s
True Declination
0° 00' 00"
Sunlit
Object was in daylight at epoch
Visualization orbit readout
Latitude
-36.53506°
Longitude
-170.04872°
Altitude
608.047 km
Speed
7.55 km/s
Apparent Right ascension
07h 29m 35s
Apparent Declination
-83° 08' 59"
Sunlit
Object is in daylight
Visualization observer readout
Local Sidereal Time
04:22:12
Azimuth
173.898° S
Elevation
-35.066°
Doppler factor
1
Orbital elements
Apogee altitude
591.282 km
Perigee altitude
575.814 km
Semi-major axis
6,961.685 km
Eccentricity
0.00111
Inclination
81.996°
RAAN
79.6665°
Arg. of periapsis
155.6497°
True anomaly
Unknown
Mean anomaly
204.5249°
Eccentric anomaly
Unknown
Mean motion
3.73656 °/min
Orbital period
96.35 mins
BSTAR
0.00014752
Loading maneuver chart data...
Loading SW <> Apogee altitude chart data...
Loading historical data...
Loading historical data...
Loading historical data...
Loading historical data...
Loading historical data...
Loading historical data...
Loading historical data...

COSMOS 2583 Visibility forecast

Observer location: undefined°, undefined°

Span
Click to sort rows by Start time (UTC) header in descending order
Start Az.
Max El. time (UTC)
Max El. Az.
Max El.
End time (UTC)
End Az.
5 mins2025-06-24 17:28:15.245Z127.884° SE2025-06-24 17:31:15.245Z79.436° E17.175°2025-06-24 17:33:15.245Z49.036° ENE
6 mins2025-06-24 19:05:15.245Z230.483° WSW2025-06-24 19:08:15.245Z297.934° NW27.279°2025-06-24 19:11:15.245Z345.888° N
6 mins2025-06-25 05:10:15.245Z11.862° NNE2025-06-25 05:12:15.245Z59.84° ENE37.283°2025-06-25 05:16:15.245Z154.612° SSE
|